EW3060 Weather Reports


Display with metric or nautical units.
time (UTC)temp
F
wind
direction
speed
MPH
gust
MPH
rain 1hr
in
rain 24hr
in
rain mn
in
humidity
%
barometer
mb
20260902210057 78 166 1.0 3.0 0.00 0.00 0.00 20 1006.8
20260902204555 78 158 1.0 9.0 0.00 0.00 0.00 20 1006.9
20260902203054 78 187 1.0 3.0 0.00 0.00 0.00 20 1007.1
20260902201601 78 187 1.0 4.0 0.00 0.00 0.00 19 1007.1
20260902200051 79 191 1.0 2.0 0.00 0.00 0.00 18 1007.2
20260902194553 78 228 1.0 3.0 0.00 0.00 0.00 15 1007.3
20260902193049 78 235 1.0 4.0 0.00 0.00 0.00 15 1007.5
20260902191545 78 214 1.0 3.0 0.00 0.00 0.00 15 1007.5
20260902190042 77 189 1.0 2.0 0.00 0.00 0.00 15 1007.4
20260902184540 77 178 1.0 5.0 0.00 0.00 0.00 15 1007.8
20260902183039 77 201 1.0 3.0 0.00 0.00 0.00 15 1008.1
20260902181549 77 185 0.0 3.0 0.00 0.00 0.00 15 1008.0
20260902180036 76 237 1.0 2.0 0.00 0.00 0.00 15 1008.0
20260902174535 76 210 0.0 2.0 0.00 0.00 0.00 16 1007.9
20260902173043 76 195 0.0 2.0 0.00 0.00 0.00 17 1007.6
20260902171532 76 270 0.0 2.0 0.00 0.00 0.00 16 1007.6
20260902170033 75 224 1.0 3.0 0.00 0.00 0.00 16 1007.5
20260902164533 75 145 0.0 2.0 0.00 0.00 0.00 15 1007.6
20260902163028 74 214 0.0 2.0 0.00 0.00 0.00 16 1007.6
20260902161527 74 157 0.0 3.0 0.00 0.00 0.00 16 1007.6
20260902160026 74 218 1.0 2.0 0.00 0.00 0.00 16 1007.7
20260902154527 73 253 0.0 2.0 0.00 0.00 0.00 17 1007.7
20260902153021 72 208 0.0 2.0 0.00 0.00 0.00 17 1007.6
20260902151518 71 173 0.0 3.0 0.00 0.00 0.00 17 1007.4
20260902150017 70 168 0.0 2.0 0.00 0.00 0.00 18 1007.2
20260902144513 70 178 0.0 2.0 0.00 0.00 0.00 19 1007.3
20260902143009 68 147 0.0 1.0 0.00 0.00 0.00 21 1007.3
20260902141506 67 228 0.0 1.0 0.00 0.00 0.00 21 1007.3
20260902140004 66 359 0.0 2.0 0.00 0.00 0.00 23 1007.0
20260902134503 66 189 0.0 1.0 0.00 0.00 0.00 24 1007.1
20260902133002 65 200 0.0 2.0 0.00 0.00 0.00 25 1007.1
20260902131502 66 205 0.0 1.0 0.00 0.00 0.00 26 1007.0
20260902124603 66 211 1.0 2.0 0.00 0.00 0.00 27 1006.7
20260902123109 66 213 1.0 3.0 0.00 0.00 0.00 27 1006.4
20260902121557 66 187 1.0 3.0 0.00 0.00 0.00 27 1006.2
20260902120056 65 201 1.0 2.0 0.00 0.00 0.00 29 1006.3
20260902114602 65 203 1.0 3.0 0.00 0.00 0.00 29 1006.4
20260902113054 64 218 0.0 2.0 0.00 0.00 0.00 31 1006.4
20260902111552 64 193 0.0 1.0 0.00 0.00 0.00 32 1006.7
20260902104556 64 208 0.0 2.0 0.00 0.00 0.00 33 1007.0
20260902103050 64 220 0.0 2.0 0.00 0.00 0.00 33 1007.1
20260902101549 64 204 0.0 4.0 0.00 0.00 0.00 32 1007.1
20260902100048 64 189 0.0 1.0 0.00 0.00 0.00 30 1007.1
20260902094551 64 176 0.0 2.0 0.00 0.00 0.00 31 1007.1
20260902093047 64 195 0.0 2.0 0.00 0.00 0.00 33 1006.7
20260902091545 65 173 1.0 3.0 0.00 0.00 0.00 35 1006.7
20260902090044 64 206 1.0 3.0 0.00 0.00 0.00 39 1006.8
20260902084544 65 189 1.0 4.0 0.00 0.00 0.00 37 1006.9
20260902083042 65 197 0.0 3.0 0.00 0.00 0.00 32 1007.3
20260902081537 65 162 0.0 6.0 0.00 0.00 0.00 26 1007.5
20260902080041 65 210 0.0 2.0 0.00 0.00 0.00 25 1007.4
20260902074533 65 176 1.0 2.0 0.00 0.00 0.00 26 1007.2
20260902073034 66 169 0.0 5.0 0.00 0.00 0.00 27 1007.0
20260902071534 66 186 0.0 2.0 0.00 0.00 0.00 29 1007.0
20260902070026 66 144 0.0 2.0 0.00 0.00 0.00 32 1007.0
20260902064526 67 172 0.0 1.0 0.00 0.00 0.00 35 1006.9
20260902063031 68 179 0.0 2.0 0.00 0.00 0.00 31 1006.9
20260902061540 68 188 0.0 4.0 0.00 0.00 0.00 27 1006.9
20260902060032 68 206 0.0 1.0 0.00 0.00 0.00 26 1007.0
20260902054539 68 189 0.0 2.0 0.00 0.00 0.00 26 1006.8
20260902053024 69 189 0.0 2.0 0.00 0.00 0.00 26 1006.9
20260902051522 69 167 0.0 2.0 0.00 0.00 0.00 26 1006.9
20260902050021 69 201 0.0 2.0 0.00 0.00 0.00 28 1006.8
20260902044521 69 195 0.0 2.0 0.00 0.00 0.00 28 1006.7
20260902043021 68 176 0.0 1.0 0.00 0.00 0.00 32 1006.5
20260902041520 69 206 0.0 2.0 0.00 0.00 0.00 34 1006.3
20260902040020 68 191 0.0 2.0 0.00 0.00 0.00 37 1006.2
20260902034520 68 187 0.0 2.0 0.00 0.00 0.00 41 1006.0
20260902033019 68 188 0.0 2.0 0.00 0.00 0.00 43 1005.8
20260902031519 69 193 1.0 2.0 0.00 0.00 0.00 42 1005.8
20260902030018 70 196 1.0 3.0 0.00 0.00 0.00 39 1005.6
20260902024517 70 359 1.0 3.0 0.00 0.00 0.00 37 1005.4
20260902023017 71 216 1.0 3.0 0.00 0.00 0.00 34 1005.3
20260902021518 72 208 1.0 3.0 0.00 0.00 0.00 33 1005.2
20260902020016 73 359 1.0 3.0 0.00 0.00 0.00 34 1005.2
20260902014527 74 205 1.0 4.0 0.00 0.00 0.00 33 1005.3
20260902013015 75 207 1.0 4.0 0.00 0.00 0.00 31 1005.4
20260902011514 75 214 1.0 5.0 0.00 0.00 0.00 30 1005.3
20260902010013 76 212 1.0 3.0 0.00 0.00 0.00 29 1005.5
20260902004514 77 219 2.0 6.0 0.00 0.00 0.00 26 1005.5
20260902003012 77 191 1.0 8.0 0.00 0.00 0.00 26 1005.5
20260902001512 78 181 1.0 5.0 0.00 0.00 0.00 24 1005.6
20260902000022 78 210 2.0 8.0 0.00 0.00 0.00 23 1005.6
20260901234511 78 209 2.0 12.0 0.00 0.00 0.00 22 1005.7
20260901233011 78 197 2.0 5.0 0.00 0.00 0.00 26 1005.5
20260901231509 79 196 2.0 4.0 0.00 0.00 0.00 24 1005.7
20260901230019 79 172 2.0 9.0 0.00 0.00 0.00 21 1005.7
20260901224507 80 162 1.0 5.0 0.00 0.00 0.00 19 1005.9
20260901223006 79 195 2.0 8.0 0.00 0.00 0.00 18 1005.7
20260901221505 80 158 1.0 10.0 0.00 0.00 0.00 20 1005.8
20260901220008 79 199 2.0 5.0 0.00 0.00 0.00 22 1005.8
20260901214502 79 204 2.0 5.0 0.00 0.00 0.00 22 1006.1
20260901213005 80 202 2.0 5.0 0.00 0.00 0.00 19 1006.2
20260901211601 80 209 1.0 6.0 0.00 0.00 0.00 18 1006.1